TimeMST,TemperatureF,Dew PointF,Humidity,Sea Level PressureIn,VisibilityMPH,Wind Direction,Wind SpeedMPH,Gust SpeedMPH,PrecipitationIn,Events,Conditions,WindDirDegrees,DateUTC
12:53 AM,43.0,34.0,71,30.03,10.0,Calm,Calm,-,0.00,Rain,Light Rain,0,2012-11-18 07:53:00
1:53 AM,41.0,36.0,82,30.05,10.0,Variable,6.9,-,0.00,Rain,Light Rain,0,2012-11-18 08:53:00
2:53 AM,44.1,37.9,79,30.01,10.0,ENE,10.4,-,0.00,,Overcast,60,2012-11-18 09:53:00
3:53 AM,44.1,37.9,79,30.01,10.0,SSE,8.1,-,N/A,,Overcast,150,2012-11-18 10:53:00
4:53 AM,45.0,37.9,76,30.01,10.0,East,10.4,-,N/A,,Overcast,100,2012-11-18 11:53:00
5:53 AM,44.1,37.9,79,30.04,10.0,ESE,13.8,-,N/A,,Overcast,120,2012-11-18 12:53:00
6:53 AM,43.0,37.0,80,30.04,10.0,ESE,10.4,25.3,N/A,,Overcast,120,2012-11-18 13:53:00
7:53 AM,43.0,37.9,82,30.06,10.0,ESE,17.3,-,N/A,,Overcast,120,2012-11-18 14:53:00
8:53 AM,46.0,39.0,76,30.07,10.0,ESE,12.7,-,N/A,,Overcast,120,2012-11-18 15:53:00
9:53 AM,48.0,41.0,77,30.06,10.0,ESE,3.5,-,N/A,,Overcast,120,2012-11-18 16:53:00
10:53 AM,50.0,39.0,66,30.06,10.0,ESE,4.6,-,N/A,,Overcast,120,2012-11-18 17:53:00
11:53 AM,52.0,37.9,59,30.04,10.0,North,4.6,-,0.00,,Overcast,10,2012-11-18 18:53:00
12:53 PM,55.0,37.0,51,30.01,10.0,North,8.1,-,0.00,,Mostly Cloudy,360,2012-11-18 19:53:00
1:53 PM,55.0,37.0,51,30.01,10.0,North,8.1,-,N/A,,Mostly Cloudy,350,2012-11-18 20:53:00
2:53 PM,55.9,36.0,47,30.00,10.0,NW,4.6,-,N/A,,Partly Cloudy,320,2012-11-18 21:53:00
3:53 PM,55.0,35.1,47,30.01,10.0,NW,8.1,-,N/A,,Clear,310,2012-11-18 22:53:00
4:53 PM,52.0,37.0,57,30.03,10.0,WSW,3.5,-,N/A,,Mostly Cloudy,240,2012-11-18 23:53:00
5:53 PM,46.9,37.0,68,30.06,10.0,Calm,Calm,-,0.00,,Mostly Cloudy,0,2012-11-19 00:53:00
6:53 PM,46.0,36.0,68,30.09,10.0,ENE,3.5,-,N/A,,Mostly Cloudy,60,2012-11-19 01:53:00
7:53 PM,44.1,37.0,76,30.10,10.0,Calm,Calm,-,N/A,,Mostly Cloudy,0,2012-11-19 02:53:00
8:53 PM,46.0,37.0,71,30.11,10.0,ESE,4.6,-,N/A,,Mostly Cloudy,110,2012-11-19 03:53:00
9:53 PM,44.1,37.0,76,30.12,10.0,East,6.9,-,N/A,,Overcast,90,2012-11-19 04:53:00
10:53 PM,44.1,37.0,76,30.12,10.0,East,9.2,-,N/A,,Mostly Cloudy,90,2012-11-19 05:53:00
11:53 PM,46.9,35.1,63,30.12,10.0,East,8.1,-,N/A,,Overcast,100,2012-11-19 06:53:00